Date,TemperatureHighF,TemperatureAvgF,TemperatureLowF,DewpointHighF,DewpointAvgF,DewpointLowF,HumidityHigh,HumidityAvg,HumidityLow,PressureMaxIn,PressureMinIn,WindSpeedMaxMPH,WindSpeedAvgMPH,GustSpeedMaxMPH,PrecipitationSumIn
2013-1-1,46,40,34,-100,-100,-100,0,0,100,0.00,40.00,0,-999,0,0.00
2013-1-2,51,42,32,-100,-100,-100,0,0,100,0.00,40.00,0,-999,0,0.00
2013-1-3,54,42,29,-100,-100,-100,0,0,100,0.00,40.00,0,-999,0,0.00
2013-1-4,54,43,30,-100,-100,-100,0,0,100,0.00,40.00,0,-999,0,0.00
2013-1-5,51,43,35,-100,-100,-100,0,0,100,0.00,40.00,0,-999,0,0.00
2013-1-6,45,41,36,-100,-100,-100,0,0,100,0.00,40.00,0,-999,0,0.00
2013-1-7,54,43,29,-100,-100,-100,0,0,100,0.00,40.00,0,-999,0,0.00
2013-1-8,57,44,36,-100,-100,-100,0,0,100,0.00,40.00,0,-999,0,0.00
2013-1-9,49,42,34,-100,-100,-100,0,0,100,0.00,40.00,0,-999,0,0.00
2013-1-10,47,38,29,-100,-100,-100,0,0,100,0.00,40.00,0,-999,0,0.00
2013-1-11,46,39,29,-100,-100,-100,0,0,100,0.00,40.00,0,-999,0,0.00
2013-1-12,44,37,29,-100,-100,-100,0,0,100,0.00,40.00,0,-999,0,0.00
2013-1-13,47,36,29,-100,-100,-100,0,0,100,0.00,40.00,0,-999,0,0.00
2013-1-14,45,37,31,-100,-100,-100,0,0,100,0.00,40.00,0,-999,0,0.00
2013-1-15,51,37,23,-100,-100,-100,0,0,100,0.00,40.00,0,-999,0,0.00
2013-1-16,53,41,32,-100,-100,-100,0,0,100,0.00,40.00,0,-999,0,0.00
2013-1-17,58,44,32,-100,-100,-100,0,0,100,0.00,40.00,0,-999,0,0.00
2013-1-18,60,47,35,-100,-100,-100,0,0,100,0.00,40.00,0,-999,0,0.00
2013-1-19,58,45,32,-100,-100,-100,0,0,100,0.00,40.00,0,-999,0,0.00
2013-1-20,60,46,32,-100,-100,-100,0,0,100,0.00,40.00,0,-999,0,0.00
2013-1-21,60,45,35,-100,-100,-100,0,0,100,0.00,40.00,0,-999,0,0.00
2013-1-22,57,47,41,-100,-100,-100,0,0,100,0.00,40.00,0,-999,0,0.00
2013-1-23,54,48,43,-100,-100,-100,0,0,100,0.00,40.00,0,-999,0,0.00
2013-1-24,52,50,45,-100,-100,-100,0,0,100,0.00,40.00,0,-999,0,0.00
2013-1-25,61,53,48,-100,-100,-100,0,0,100,0.00,40.00,0,-999,0,0.00
2013-1-26,51,47,43,-100,-100,-100,0,0,100,0.00,40.00,0,-999,0,0.00
2013-1-27,50,42,36,-100,-100,-100,0,0,100,0.00,40.00,0,-999,0,0.00
2013-1-28,51,43,33,-100,-100,-100,0,0,100,0.00,40.00,0,-999,0,0.00
2013-1-29,52,43,36,-100,-100,-100,0,0,100,0.00,40.00,0,-999,0,0.00
2013-1-30,63,52,40,-100,-100,-100,0,0,100,0.00,40.00,0,-999,0,0.00
2013-1-31,60,51,39,-100,-100,-100,0,0,100,0.00,40.00,0,-999,0,0.00
2013-2-1,65,52,38,-100,-100,-100,0,0,100,0.00,40.00,0,-999,0,0.00
2013-2-2,54,47,40,-100,-100,-100,0,0,100,0.00,40.00,0,-999,0,0.00
2013-2-3,54,46,40,-100,-100,-100,0,0,100,0.00,40.00,0,-999,0,0.00
2013-2-4,51,44,36,-100,-100,-100,0,0,100,0.00,40.00,0,-999,0,0.00
2013-2-5,51,46,43,-100,-100,-100,0,0,100,0.00,40.00,0,-999,0,0.00
2013-2-6,52,44,36,-100,-100,-100,0,0,100,0.00,40.00,0,-999,0,0.00
2013-2-7,50,42,32,-100,-100,-100,0,0,100,0.00,40.00,0,-999,0,0.00
2013-2-8,47,40,36,-100,-100,-100,0,0,100,0.00,40.00,0,-999,0,0.00
2013-2-9,52,39,26,-100,-100,-100,0,0,100,0.00,40.00,0,-999,0,0.00
2013-2-10,54,41,31,-100,-100,-100,0,0,100,0.00,40.00,0,-999,0,0.00
2013-2-11,59,46,29,-100,-100,-100,0,0,100,0.00,40.00,0,-999,0,0.00
2013-2-12,57,43,32,-100,-100,-100,0,0,100,0.00,40.00,0,-999,0,0.00
2013-2-13,58,41,32,-100,-100,-100,0,0,100,0.00,40.00,0,-999,0,0.00
2013-2-14,63,53,34,-100,-100,-100,0,0,100,0.00,40.00,0,-999,0,0.00
2013-2-15,68,52,38,-100,-100,-100,0,0,100,0.00,40.00,0,-999,0,0.00
2013-2-16,65,50,37,-100,-100,-100,0,0,100,0.00,40.00,0,-999,0,0.00
2013-2-17,57,46,41,-100,-100,-100,0,0,100,0.00,40.00,0,-999,0,0.00
2013-2-18,47,44,36,-100,-100,-100,0,0,100,0.00,40.00,0,-999,0,0.00
2013-2-19,44,41,34,-100,-100,-100,0,0,100,0.00,40.00,0,-999,0,0.00
2013-2-20,51,39,29,-100,-100,-100,0,0,100,0.00,40.00,0,-999,0,0.00
2013-2-21,54,43,35,-100,-100,-100,0,0,100,0.00,40.00,0,-999,0,0.00
2013-2-22,55,45,30,-100,-100,-100,0,0,100,0.00,40.00,0,-999,0,0.00
2013-2-23,53,48,43,-100,-100,-100,0,0,100,0.00,40.00,0,-999,0,0.00
2013-2-24,58,48,35,-100,-100,-100,0,0,100,0.00,40.00,0,-999,0,0.00
2013-2-25,54,42,32,-100,-100,-100,0,0,100,0.00,40.00,0,-999,0,0.00
2013-2-26,62,42,34,-100,-100,-100,0,0,100,0.00,40.00,0,-999,0,0.00
2013-2-27,63,46,32,-100,-100,-100,0,0,100,0.00,40.00,0,-999,0,0.00
2013-2-28,58,48,40,-100,-100,-100,0,0,100,0.00,40.00,0,-999,0,0.00
2013-3-1,66,52,42,-100,-100,-100,0,0,100,0.00,40.00,0,-999,0,0.00
2013-3-2,67,54,43,-100,-100,-100,0,0,100,0.00,40.00,0,-999,0,0.00
2013-3-3,58,51,46,-100,-100,-100,0,0,100,0.00,40.00,0,-999,0,0.00
2013-3-4,54,46,42,-100,-100,-100,0,0,100,0.00,40.00,0,-999,0,0.00
2013-3-5,55,46,39,-100,-100,-100,0,0,100,0.00,40.00,0,-999,0,0.00
2013-3-6,51,47,44,-100,-100,-100,0,0,100,0.00,40.00,0,-999,0,0.00
2013-3-7,54,44,36,-100,-100,-100,0,0,100,0.00,40.00,0,-999,0,0.00
2013-3-8,51,45,39,-100,-100,-100,0,0,100,0.00,40.00,0,-999,0,0.00
2013-3-9,58,48,43,-100,-100,-100,0,0,100,0.00,40.00,0,-999,0,0.00
2013-3-10,64,53,37,-100,-100,-100,0,0,100,0.00,40.00,0,-999,0,0.00
2013-3-11,65,50,36,-100,-100,-100,0,0,100,0.00,40.00,0,-999,0,0.00
2013-3-12,65,51,40,-100,-100,-100,0,0,100,0.00,40.00,0,-999,0,0.00
2013-3-13,71,54,41,-100,-100,-100,0,0,100,0.00,40.00,0,-999,0,0.00
2013-3-14,65,53,46,-100,-100,-100,0,0,100,0.00,40.00,0,-999,0,0.00
2013-3-15,63,49,40,-100,-100,-100,0,0,100,0.00,40.00,0,-999,0,0.00
2013-3-16,62,51,45,-100,-100,-100,0,0,100,0.00,40.00,0,-999,0,0.00
2013-3-17,62,49,39,-100,-100,-100,0,0,100,0.00,40.00,0,-999,0,0.00
2013-3-18,60,46,37,-100,-100,-100,0,0,100,0.00,40.00,0,-999,0,0.00
2013-3-19,62,50,42,-100,-100,-100,0,0,100,0.00,40.00,0,-999,0,0.00
2013-3-20,62,53,49,-100,-100,-100,0,0,100,0.00,40.00,0,-999,0,0.00
2013-3-21,57,48,43,-100,-100,-100,0,0,100,0.00,40.00,0,-999,0,0.00
2013-3-22,60,49,34,-100,-100,-100,0,0,100,0.00,40.00,0,-999,0,0.00
2013-3-23,62,51,39,-100,-100,-100,0,0,100,0.00,40.00,0,-999,0,0.00
2013-3-24,63,49,39,-100,-100,-100,0,0,100,0.00,40.00,0,-999,0,0.00
2013-3-25,54,46,40,-100,-100,-100,0,0,100,0.00,40.00,0,-999,0,0.00
2013-3-26,60,52,43,-100,-100,-100,0,0,100,0.00,40.00,0,-999,0,0.00
2013-3-27,59,53,41,-100,-100,-100,0,0,100,0.00,40.00,0,-999,0,0.00
2013-3-28,65,55,50,-100,-100,-100,0,0,100,0.00,40.00,0,-999,0,0.00
2013-3-29,73,58,43,-100,-100,-100,0,0,100,0.00,40.00,0,-999,0,0.00
2013-3-30,66,57,49,-100,-100,-100,0,0,100,0.00,40.00,0,-999,0,0.00
2013-3-31,64,58,47,-100,-100,-100,0,0,100,0.00,40.00,0,-999,0,0.00
2013-4-1,62,55,51,-100,-100,-100,0,0,100,0.00,40.00,0,-999,0,0.00
2013-4-2,61,52,43,-100,-100,-100,0,0,100,0.00,40.00,0,-999,0,0.00
2013-4-3,73,54,44,-100,-100,-100,0,0,100,0.00,40.00,0,-999,0,0.00
2013-4-4,62,55,51,-100,-100,-100,0,0,100,0.00,40.00,0,-999,0,0.00
2013-4-5,60,55,51,-100,-100,-100,0,0,100,0.00,40.00,0,-999,0,0.00
2013-4-6,58,54,47,-100,-100,-100,0,0,100,0.00,40.00,0,-999,0,0.00
2013-4-7,58,53,50,-100,-100,-100,0,0,100,0.00,40.00,0,-999,0,0.00
2013-4-8,61,52,42,-100,-100,-100,0,0,100,0.00,40.00,0,-999,0,0.00
2013-4-9,71,59,46,-100,-100,-100,0,0,100,0.00,40.00,0,-999,0,0.00
2013-4-10,76,60,47,-100,-100,-100,0,0,100,0.00,40.00,0,-999,0,0.00
2013-4-11,62,52,45,-100,-100,-100,0,0,100,0.00,40.00,0,-999,0,0.00
2013-4-12,69,50,43,-100,-100,-100,0,0,100,0.00,40.00,0,-999,0,0.00
2013-4-13,60,51,44,-100,-100,-100,0,0,100,0.00,40.00,0,-999,0,0.00
2013-4-14,56,48,40,-100,-100,-100,0,0,100,0.00,40.00,0,-999,0,0.00
2013-4-15,51,47,44,-100,-100,-100,0,0,100,0.00,40.00,0,-999,0,0.00
2013-4-16,58,46,36,-100,-100,-100,0,0,100,0.00,40.00,0,-999,0,0.00
2013-4-17,65,54,44,-100,-100,-100,0,0,100,0.00,40.00,0,-999,0,0.00
2013-4-18,69,55,41,-100,-100,-100,0,0,100,0.00,40.00,0,-999,0,0.00
2013-4-19,73,54,44,-100,-100,-100,0,0,100,0.00,40.00,0,-999,0,0.00
2013-4-20,69,58,45,-100,-100,-100,0,0,100,0.00,40.00,0,-999,0,0.00
2013-4-21,79,59,45,-100,-100,-100,0,0,100,0.00,40.00,0,-999,0,0.00
2013-4-22,80,64,47,-100,-100,-100,0,0,100,0.00,40.00,0,-999,0,0.00
2013-4-23,73,62,51,-100,-100,-100,0,0,100,0.00,40.00,0,-999,0,0.00
2013-4-24,63,53,42,-100,-100,-100,0,0,100,0.00,40.00,0,-999,0,0.00
2013-4-25,61,54,47,-100,-100,-100,0,0,100,0.00,40.00,0,-999,0,0.00
2013-4-26,64,55,51,-100,-100,-100,0,0,100,0.00,40.00,0,-999,0,0.00
2013-4-27,67,55,47,-100,-100,-100,0,0,100,0.00,40.00,0,-999,0,0.00
2013-4-28,76,56,45,-100,-100,-100,0,0,100,0.00,40.00,0,-999,0,0.00
2013-4-29,80,64,52,-100,-100,-100,0,0,100,0.00,40.00,0,-999,0,0.00
2013-4-30,67,57,50,-100,-100,-100,0,0,100,0.00,40.00,0,-999,0,0.00
2013-5-1,82,67,53,-100,-100,-100,0,0,100,0.00,40.00,0,-999,0,0.00
2013-5-2,85,67,50,-100,-100,-100,0,0,100,0.00,40.00,0,-999,0,0.00
2013-5-3,80,66,47,-100,-100,-100,0,0,100,0.00,40.00,0,-999,0,0.00
2013-5-4,81,65,54,-100,-100,-100,0,0,100,0.00,40.00,0,-999,0,0.00
2013-5-5,66,59,51,-100,-100,-100,0,0,100,0.00,40.00,0,-999,0,0.00
2013-5-6,64,59,51,-100,-100,-100,0,0,100,0.00,40.00,0,-999,0,0.00
2013-5-7,66,58,53,-100,-100,-100,0,0,100,0.00,40.00,0,-999,0,0.00
2013-5-8,58,53,49,-100,-100,-100,0,0,100,0.00,40.00,0,-999,0,0.00
2013-5-9,58,51,47,-100,-100,-100,0,0,100,0.00,40.00,0,-999,0,0.00
2013-5-10,63,53,46,-100,-100,-100,0,0,100,0.00,40.00,0,-999,0,0.00
2013-5-11,78,62,51,-100,-100,-100,0,0,100,0.00,40.00,0,-999,0,0.00
2013-5-12,73,61,51,-100,-100,-100,0,0,100,0.00,40.00,0,-999,0,0.00
2013-5-13,69,58,51,-100,-100,-100,0,0,100,0.00,40.00,0,-999,0,0.00
2013-5-14,62,57,47,-100,-100,-100,0,0,100,0.00,40.00,0,-999,0,0.00
2013-5-15,60,54,45,-100,-100,-100,0,0,100,0.00,40.00,0,-999,0,0.00
2013-5-16,59,54,51,-100,-100,-100,0,0,100,0.00,40.00,0,-999,0,0.00
2013-5-17,61,54,51,-100,-100,-100,0,0,100,0.00,40.00,0,-999,0,0.00
2013-5-18,63,55,47,-100,-100,-100,0,0,100,0.00,40.00,0,-999,0,0.00
2013-5-19,70,57,47,-100,-100,-100,0,0,100,0.00,40.00,0,-999,0,0.00
2013-5-20,76,58,47,-100,-100,-100,0,0,100,0.00,40.00,0,-999,0,0.00
2013-5-21,58,53,47,-100,-100,-100,0,0,100,0.00,40.00,0,-999,0,0.00
2013-5-22,57,50,38,-100,-100,-100,0,0,100,0.00,40.00,0,-999,0,0.00
2013-5-23,61,51,43,-100,-100,-100,0,0,100,0.00,40.00,0,-999,0,0.00
2013-5-24,62,50,42,-100,-100,-100,0,0,100,0.00,40.00,0,-999,0,0.00
2013-5-25,56,50,45,-100,-100,-100,0,0,100,0.00,40.00,0,-999,0,0.00
2013-5-26,62,55,51,-100,-100,-100,0,0,100,0.00,40.00,0,-999,0,0.00
2013-5-27,59,55,51,-100,-100,-100,0,0,100,0.00,40.00,0,-999,0,0.00
2013-5-28,63,57,54,-100,-100,-100,0,0,100,0.00,40.00,0,-999,0,0.00
2013-5-29,62,56,51,-100,-100,-100,0,0,100,0.00,40.00,0,-999,0,0.00
2013-5-30,63,55,43,-100,-100,-100,0,0,100,0.00,40.00,0,-999,0,0.00
2013-5-31,77,61,46,-100,-100,-100,0,0,100,0.00,40.00,0,-999,0,0.00
2013-6-1,82,61,51,-100,-100,-100,0,0,100,0.00,40.00,0,-999,0,0.00
2013-6-2,70,58,48,-100,-100,-100,0,0,100,0.00,40.00,0,-999,0,0.00
2013-6-3,70,61,47,-100,-100,-100,0,0,100,0.00,40.00,0,-999,0,0.00
2013-6-4,67,57,52,-100,-100,-100,0,0,100,0.00,40.00,0,-999,0,0.00
2013-6-5,65,56,51,-100,-100,-100,0,0,100,0.00,40.00,0,-999,0,0.00
2013-6-6,69,59,50,-100,-100,-100,0,0,100,0.00,40.00,0,-999,0,0.00
2013-6-7,85,65,50,-100,-100,-100,0,0,100,0.00,40.00,0,-999,0,0.00
2013-6-8,80,67,57,-100,-100,-100,0,0,100,0.00,40.00,0,-999,0,0.00
2013-6-9,68,60,54,-100,-100,-100,0,0,100,0.00,40.00,0,-999,0,0.00
2013-6-10,67,59,55,-100,-100,-100,0,0,100,0.00,40.00,0,-999,0,0.00
2013-6-11,66,59,54,-100,-100,-100,0,0,100,0.00,40.00,0,-999,0,0.00
2013-6-12,65,58,48,-100,-100,-100,0,0,100,0.00,40.00,0,-999,0,0.00
2013-6-13,67,55,47,-100,-100,-100,0,0,100,0.00,40.00,0,-999,0,0.00
2013-6-14,78,63,50,-100,-100,-100,0,0,100,0.00,40.00,0,-999,0,0.00
2013-6-15,62,57,50,-100,-100,-100,0,0,100,0.00,40.00,0,-999,0,0.00
2013-6-16,69,54,47,-100,-100,-100,0,0,100,0.00,40.00,0,-999,0,0.00
2013-6-17,62,55,51,-100,-100,-100,0,0,100,0.00,40.00,0,-999,0,0.00
2013-6-18,61,56,53,-100,-100,-100,0,0,100,0.00,40.00,0,-999,0,0.00
2013-6-19,64,54,49,-100,-100,-100,0,0,100,0.00,40.00,0,-999,0,0.00
2013-6-20,62,50,46,-100,-100,-100,0,0,100,0.00,40.00,0,-999,0,0.00
2013-6-22,73,65,56,-100,-100,-100,0,0,100,0.00,40.00,0,-999,0,0.00
2013-6-23,64,60,54,-100,-100,-100,0,0,100,0.00,40.00,0,-999,0,0.00
2013-6-24,63,58,53,-100,-100,-100,0,0,100,0.00,40.00,0,-999,0,0.00
2013-6-25,73,66,58,-100,-100,-100,0,0,100,0.00,40.00,0,-999,0,0.00
2013-6-26,76,64,60,-100,-100,-100,0,0,100,0.00,40.00,0,-999,0,0.00
2013-6-27,76,64,56,-100,-100,-100,0,0,100,0.00,40.00,0,-999,0,0.00
2013-6-28,88,71,59,-100,-100,-100,0,0,100,0.00,40.00,0,-999,0,0.00
2013-6-29,91,74,61,-100,-100,-100,0,0,100,0.00,40.00,0,-999,0,0.00
2013-6-30,81,69,59,-100,-100,-100,0,0,100,0.00,40.00,0,-999,0,0.00
2013-7-1,85,70,57,-100,-100,-100,0,0,100,0.00,40.00,0,-999,0,0.00
2013-7-2,87,71,63,-100,-100,-100,0,0,100,0.00,40.00,0,-999,0,0.00
2013-7-3,87,66,55,-100,-100,-100,0,0,100,0.00,40.00,0,-999,0,0.00
2013-7-4,87,74,65,-100,-100,-100,0,0,100,0.00,40.00,0,-999,0,0.00
2013-7-5,62,57,54,-100,-100,-100,0,0,100,0.00,40.00,0,-999,0,0.00
2013-7-6,58,55,51,-100,-100,-100,0,0,100,0.00,40.00,0,-999,0,0.00
2013-7-7,73,62,50,-100,-100,-100,0,0,100,0.00,40.00,0,-999,0,0.00
2013-7-8,74,56,51,-100,-100,-100,0,0,100,0.00,40.00,0,-999,0,0.00
2013-7-9,82,68,54,-100,-100,-100,0,0,100,0.00,40.00,0,-999,0,0.00
2013-7-10,73,62,51,-100,-100,-100,0,0,100,0.00,40.00,0,-999,0,0.00
2013-7-11,68,59,53,-100,-100,-100,0,0,100,0.00,40.00,0,-999,0,0.00
2013-7-12,70,57,52,-100,-100,-100,0,0,100,0.00,40.00,0,-999,0,0.00
2013-7-13,77,64,49,-100,-100,-100,0,0,100,0.00,40.00,0,-999,0,0.00
2013-7-14,71,60,51,-100,-100,-100,0,0,100,0.00,40.00,0,-999,0,0.00
2013-7-15,66,56,51,-100,-100,-100,0,0,100,0.00,40.00,0,-999,0,0.00
2013-7-16,65,59,54,-100,-100,-100,0,0,100,0.00,40.00,0,-999,0,0.00
2013-7-17,66,59,54,-100,-100,-100,0,0,100,0.00,40.00,0,-999,0,0.00
2013-7-18,75,64,53,-100,-100,-100,0,0,100,0.00,40.00,0,-999,0,0.00
2013-7-19,76,64,54,-100,-100,-100,0,0,100,0.00,40.00,0,-999,0,0.00
2013-7-20,73,63,54,-100,-100,-100,0,0,100,0.00,40.00,0,-999,0,0.00
2013-7-21,73,61,54,-100,-100,-100,0,0,100,0.00,40.00,0,-999,0,0.00
2013-7-22,72,68,62,-100,-100,-100,0,0,100,0.00,40.00,0,-999,0,0.00
2013-7-23,73,67,60,-100,-100,-100,0,0,100,0.00,40.00,0,-999,0,0.00
2013-7-24,79,68,58,-100,-100,-100,0,0,100,0.00,40.00,0,-999,0,0.00
2013-7-25,76,65,55,-100,-100,-100,0,0,100,0.00,40.00,0,-999,0,0.00
2013-7-26,74,60,54,-100,-100,-100,0,0,100,0.00,40.00,0,-999,0,0.00
2013-7-27,70,60,53,-100,-100,-100,0,0,100,0.00,40.00,0,-999,0,0.00
2013-7-28,68,60,54,-100,-100,-100,0,0,100,0.00,40.00,0,-999,0,0.00
2013-7-29,69,58,51,-100,-100,-100,0,0,100,0.00,40.00,0,-999,0,0.00
2013-7-30,66,59,54,-100,-100,-100,0,0,100,0.00,40.00,0,-999,0,0.00
2013-7-31,68,59,51,-100,-100,-100,0,0,100,0.00,40.00,0,-999,0,0.00
2013-8-1,64,56,50,-100,-100,-100,0,0,100,0.00,40.00,0,-999,0,0.00
2013-8-2,70,59,51,-100,-100,-100,0,0,100,0.00,40.00,0,-999,0,0.00
2013-8-3,71,59,53,-100,-100,-100,0,0,100,0.00,40.00,0,-999,0,0.00
2013-8-4,66,58,53,-100,-100,-100,0,0,100,0.00,40.00,0,-999,0,0.00
2013-8-5,68,57,51,-100,-100,-100,0,0,100,0.00,40.00,0,-999,0,0.00
2013-8-6,65,58,54,-100,-100,-100,0,0,100,0.00,40.00,0,-999,0,0.00
2013-8-7,58,57,56,-100,-100,-100,0,0,100,0.00,40.00,0,-999,0,0.00
2013-8-8,62,59,58,-100,-100,-100,0,0,100,0.00,40.00,0,-999,0,0.00
2013-8-9,66,57,54,-100,-100,-100,0,0,100,0.00,40.00,0,-999,0,0.00
2013-8-10,68,60,55,-100,-100,-100,0,0,100,0.00,40.00,0,-999,0,0.00
2013-8-11,68,61,57,-100,-100,-100,0,0,100,0.00,40.00,0,-999,0,0.00
2013-8-12,74,59,53,-100,-100,-100,0,0,100,0.00,40.00,0,-999,0,0.00
2013-8-13,80,65,52,-100,-100,-100,0,0,100,0.00,40.00,0,-999,0,0.00
2013-8-14,71,60,52,-100,-100,-100,0,0,100,0.00,40.00,0,-999,0,0.00
2013-8-15,73,65,61,-100,-100,-100,0,0,100,0.00,40.00,0,-999,0,0.00
2013-8-16,76,65,58,-100,-100,-100,0,0,100,0.00,40.00,0,-999,0,0.00
2013-8-17,67,62,57,-100,-100,-100,0,0,100,0.00,40.00,0,-999,0,0.00
2013-8-18,86,72,55,-100,-100,-100,0,0,100,0.00,40.00,0,-999,0,0.00
2013-8-19,81,69,62,-100,-100,-100,0,0,100,0.00,40.00,0,-999,0,0.00
2013-8-20,74,65,58,-100,-100,-100,0,0,100,0.00,40.00,0,-999,0,0.00
2013-8-21,70,62,55,-100,-100,-100,0,0,100,0.00,40.00,0,-999,0,0.00
2013-8-22,65,62,58,-100,-100,-100,0,0,100,0.00,40.00,0,-999,0,0.00
2013-8-23,65,59,56,-100,-100,-100,0,0,100,0.00,40.00,0,-999,0,0.00
2013-8-24,69,61,54,-100,-100,-100,0,0,100,0.00,40.00,0,-999,0,0.00
2013-8-25,74,66,62,-100,-100,-100,0,0,100,0.00,40.00,0,-999,0,0.00
2013-8-26,68,62,57,-100,-100,-100,0,0,100,0.00,40.00,0,-999,0,0.00
2013-8-27,65,59,52,-100,-100,-100,0,0,100,0.00,40.00,0,-999,0,0.00
2013-8-28,73,67,62,-100,-100,-100,0,0,100,0.00,40.00,0,-999,0,0.00
2013-8-29,73,65,60,-100,-100,-100,0,0,100,0.00,40.00,0,-999,0,0.00
2013-8-30,79,63,58,-100,-100,-100,0,0,100,0.00,40.00,0,-999,0,0.00
2013-8-31,73,64,57,-100,-100,-100,0,0,100,0.00,40.00,0,-999,0,0.00
2013-9-1,76,64,58,-100,-100,-100,0,0,100,0.00,40.00,0,-999,0,0.00
2013-9-2,71,66,62,-100,-100,-100,0,0,100,0.00,40.00,0,-999,0,0.00
2013-9-3,66,60,58,-100,-100,-100,0,0,100,0.00,40.00,0,-999,0,0.00
2013-9-4,69,64,57,-100,-100,-100,0,0,100,0.00,40.00,0,-999,0,0.00
2013-9-5,69,62,58,-100,-100,-100,0,0,100,0.00,40.00,0,-999,0,0.00
2013-9-6,81,64,52,-100,-100,-100,0,0,100,0.00,40.00,0,-999,0,0.00
2013-9-7,88,72,58,-100,-100,-100,0,0,100,0.00,40.00,0,-999,0,0.00
2013-9-8,82,66,56,-100,-100,-100,0,0,100,0.00,40.00,0,-999,0,0.00
2013-9-9,83,69,56,-100,-100,-100,0,0,100,0.00,40.00,0,-999,0,0.00
2013-9-10,71,63,55,-100,-100,-100,0,0,100,0.00,40.00,0,-999,0,0.00
2013-9-11,69,61,54,-100,-100,-100,0,0,100,0.00,40.00,0,-999,0,0.00
2013-9-12,69,62,58,-100,-100,-100,0,0,100,0.00,40.00,0,-999,0,0.00
2013-9-13,68,60,56,-100,-100,-100,0,0,100,0.00,40.00,0,-999,0,0.00
2013-9-14,62,58,55,-100,-100,-100,0,0,100,0.00,40.00,0,-999,0,0.00
2013-9-15,70,61,55,-100,-100,-100,0,0,100,0.00,40.00,0,-999,0,0.00
2013-9-16,73,62,58,-100,-100,-100,0,0,100,0.00,40.00,0,-999,0,0.00
2013-9-17,62,58,55,-100,-100,-100,0,0,100,0.00,40.00,0,-999,0,0.00
2013-9-18,60,54,52,-100,-100,-100,0,0,100,0.00,40.00,0,-999,0,0.00
2013-9-19,81,63,48,-100,-100,-100,0,0,100,0.00,40.00,0,-999,0,0.00
2013-9-20,69,61,51,-100,-100,-100,0,0,100,0.00,40.00,0,-999,0,0.00
2013-9-21,65,61,58,-100,-100,-100,0,0,100,0.00,40.00,0,-999,0,0.00
2013-9-22,66,60,54,-100,-100,-100,0,0,100,0.00,40.00,0,-999,0,0.00
2013-9-23,74,61,52,-100,-100,-100,0,0,100,0.00,40.00,0,-999,0,0.00
2013-9-24,65,59,52,-100,-100,-100,0,0,100,0.00,40.00,0,-999,0,0.00
2013-9-25,60,56,51,-100,-100,-100,0,0,100,0.00,40.00,0,-999,0,0.00
2013-9-26,67,59,46,-100,-100,-100,0,0,100,0.00,40.00,0,-999,0,0.00
2013-9-27,70,59,43,-100,-100,-100,0,0,100,0.00,40.00,0,-999,0,0.00
2013-9-28,77,63,46,-100,-100,-100,0,0,100,0.00,40.00,0,-999,0,0.00
2013-9-29,71,59,51,-100,-100,-100,0,0,100,0.00,40.00,0,-999,0,0.00
2013-9-30,69,62,54,-100,-100,-100,0,0,100,0.00,40.00,0,-999,0,0.00
2013-10-1,58,58,58,-100,-100,-100,0,0,100,0.00,40.00,0,-999,0,0.00
2013-10-2,66,56,47,-100,-100,-100,0,0,100,0.00,40.00,0,-999,0,0.00
2013-10-3,68,61,47,-100,-100,-100,0,0,100,0.00,40.00,0,-999,0,0.00
2013-10-4,76,68,59,-100,-100,-100,0,0,100,0.00,40.00,0,-999,0,0.00
2013-10-5,82,67,54,-100,-100,-100,0,0,100,0.00,40.00,0,-999,0,0.00
2013-10-6,80,62,43,-100,-100,-100,0,0,100,0.00,40.00,0,-999,0,0.00
2013-10-7,76,65,51,-100,-100,-100,0,0,100,0.00,40.00,0,-999,0,0.00
2013-10-8,68,56,46,-100,-100,-100,0,0,100,0.00,40.00,0,-999,0,0.00
2013-10-9,62,52,46,-100,-100,-100,0,0,100,0.00,40.00,0,-999,0,0.00
2013-10-10,64,55,45,-100,-100,-100,0,0,100,0.00,40.00,0,-999,0,0.00
2013-10-11,60,51,44,-100,-100,-100,0,0,100,0.00,40.00,0,-999,0,0.00
2013-10-12,65,53,44,-100,-100,-100,0,0,100,0.00,40.00,0,-999,0,0.00
2013-10-13,67,53,44,-100,-100,-100,0,0,100,0.00,40.00,0,-999,0,0.00
2013-10-14,73,57,41,-100,-100,-100,0,0,100,0.00,40.00,0,-999,0,0.00
2013-10-15,76,61,46,-100,-100,-100,0,0,100,0.00,40.00,0,-999,0,0.00
2013-10-16,77,58,44,-100,-100,-100,0,0,100,0.00,40.00,0,-999,0,0.00
2013-10-17,76,59,44,-100,-100,-100,0,0,100,0.00,40.00,0,-999,0,0.00
2013-10-18,73,59,44,-100,-100,-100,0,0,100,0.00,40.00,0,-999,0,0.00
2013-10-19,75,60,43,-100,-100,-100,0,0,100,0.00,40.00,0,-999,0,0.00
2013-10-20,71,54,43,-100,-100,-100,0,0,100,0.00,40.00,0,-999,0,0.00
2013-10-21,65,54,47,-100,-100,-100,0,0,100,0.00,40.00,0,-999,0,0.00
2013-10-22,65,52,47,-100,-100,-100,0,0,100,0.00,40.00,0,-999,0,0.00
2013-10-23,60,52,47,-100,-100,-100,0,0,100,0.00,40.00,0,-999,0,0.00
2013-10-24,54,50,46,-100,-100,-100,0,0,100,0.00,40.00,0,-999,0,0.00
2013-10-25,63,51,44,-100,-100,-100,0,0,100,0.00,40.00,0,-999,0,0.00
2013-10-26,69,55,43,-100,-100,-100,0,0,100,0.00,40.00,0,-999,0,0.00
2013-10-27,54,50,44,-100,-100,-100,0,0,100,0.00,40.00,0,-999,0,0.00
2013-10-28,57,51,46,-100,-100,-100,0,0,100,0.00,40.00,0,-999,0,0.00
2013-10-29,57,52,47,-100,-100,-100,0,0,100,0.00,40.00,0,-999,0,0.00
2013-10-30,62,52,41,-100,-100,-100,0,0,100,0.00,40.00,0,-999,0,0.00
2013-10-31,65,54,42,-100,-100,-100,0,0,100,0.00,40.00,0,-999,0,0.00
2013-11-1,69,55,43,-100,-100,-100,0,0,100,0.00,40.00,0,-999,0,0.00
2013-11-2,65,55,41,-100,-100,-100,0,0,100,0.00,40.00,0,-999,0,0.00
2013-11-3,58,49,43,-100,-100,-100,0,0,100,0.00,40.00,0,-999,0,0.00
2013-11-4,60,53,42,-100,-100,-100,0,0,100,0.00,40.00,0,-999,0,0.00
2013-11-5,67,58,45,-100,-100,-100,0,0,100,0.00,40.00,0,-999,0,0.00
2013-11-6,69,57,44,-100,-100,-100,0,0,100,0.00,40.00,0,-999,0,0.00
2013-11-7,65,56,46,-100,-100,-100,0,0,100,0.00,40.00,0,-999,0,0.00
2013-11-8,65,54,43,-100,-100,-100,0,0,100,0.00,40.00,0,-999,0,0.00
2013-11-9,66,54,41,-100,-100,-100,0,0,100,0.00,40.00,0,-999,0,0.00
2013-11-10,60,50,42,-100,-100,-100,0,0,100,0.00,40.00,0,-999,0,0.00
2013-11-11,61,56,47,-100,-100,-100,0,0,100,0.00,40.00,0,-999,0,0.00
2013-11-12,65,56,48,-100,-100,-100,0,0,100,0.00,40.00,0,-999,0,0.00
2013-11-13,68,55,43,-100,-100,-100,0,0,100,0.00,40.00,0,-999,0,0.00
2013-11-14,55,50,47,-100,-100,-100,0,0,100,0.00,40.00,0,-999,0,0.00
2013-11-15,58,50,42,-100,-100,-100,0,0,100,0.00,40.00,0,-999,0,0.00
2013-11-16,54,48,40,-100,-100,-100,0,0,100,0.00,40.00,0,-999,0,0.00
2013-11-17,57,50,45,-100,-100,-100,0,0,100,0.00,40.00,0,-999,0,0.00
2013-11-18,55,48,39,-100,-100,-100,0,0,100,0.00,40.00,0,-999,0,0.00
2013-11-19,58,51,46,-100,-100,-100,0,0,100,0.00,40.00,0,-999,0,0.00
2013-11-20,60,53,47,-100,-100,-100,0,0,100,0.00,40.00,0,-999,0,0.00
2013-11-21,57,52,47,-100,-100,-100,0,0,100,0.00,40.00,0,-999,0,0.00
2013-11-22,66,53,47,-100,-100,-100,0,0,100,0.00,40.00,0,-999,0,0.00
2013-11-23,62,52,43,-100,-100,-100,0,0,100,0.00,40.00,0,-999,0,0.00
2013-11-24,60,50,36,-100,-100,-100,0,0,100,0.00,40.00,0,-999,0,0.00
2013-11-25,61,48,38,-100,-100,-100,0,0,100,0.00,40.00,0,-999,0,0.00
2013-11-26,59,51,43,-100,-100,-100,0,0,100,0.00,40.00,0,-999,0,0.00
2013-11-27,60,49,43,-100,-100,-100,0,0,100,0.00,40.00,0,-999,0,0.00
2013-11-28,63,52,43,-100,-100,-100,0,0,100,0.00,40.00,0,-999,0,0.00
2013-11-29,65,51,41,-100,-100,-100,0,0,100,0.00,40.00,0,-999,0,0.00
2013-11-30,62,49,38,-100,-100,-100,0,0,100,0.00,40.00,0,-999,0,0.00
2013-12-1,63,51,40,-100,-100,-100,0,0,100,0.00,40.00,0,-999,0,0.00
2013-12-2,55,46,38,-100,-100,-100,0,0,100,0.00,40.00,0,-999,0,0.00
2013-12-3,52,47,40,-100,-100,-100,0,0,100,0.00,40.00,0,-999,0,0.00
2013-12-4,47,42,33,-100,-100,-100,0,0,100,0.00,40.00,0,-999,0,0.00
2013-12-5,51,38,27,-100,-100,-100,0,0,100,0.00,40.00,0,-999,0,0.00
2013-12-6,47,41,29,-100,-100,-100,0,0,100,0.00,40.00,0,-999,0,0.00
2013-12-7,44,39,31,-100,-100,-100,0,0,100,0.00,40.00,0,-999,0,0.00
2013-12-8,40,34,30,-100,-100,-100,0,0,100,0.00,40.00,0,-999,0,0.00
2013-12-9,44,36,29,-100,-100,-100,0,0,100,0.00,40.00,0,-999,0,0.00
2013-12-10,47,41,31,-100,-100,-100,0,0,100,0.00,40.00,0,-999,0,0.00
2013-12-11,51,38,30,-100,-100,-100,0,0,100,0.00,40.00,0,-999,0,0.00
2013-12-12,55,43,30,-100,-100,-100,0,0,100,0.00,40.00,0,-999,0,0.00
2013-12-13,54,41,31,-100,-100,-100,0,0,100,0.00,40.00,0,-999,0,0.00
2013-12-14,57,46,30,-100,-100,-100,0,0,100,0.00,40.00,0,-999,0,0.00
2013-12-15,58,43,33,-100,-100,-100,0,0,100,0.00,40.00,0,-999,0,0.00
2013-12-16,65,48,35,-100,-100,-100,0,0,100,0.00,40.00,0,-999,0,0.00
2013-12-17,58,49,40,-100,-100,-100,0,0,100,0.00,40.00,0,-999,0,0.00
2013-12-18,54,47,40,-100,-100,-100,0,0,100,0.00,40.00,0,-999,0,0.00
2013-12-19,53,44,36,-100,-100,-100,0,0,100,0.00,40.00,0,-999,0,0.00
2013-12-20,55,45,38,-100,-100,-100,0,0,100,0.00,40.00,0,-999,0,0.00
2013-12-21,57,46,33,-100,-100,-100,0,0,100,0.00,40.00,0,-999,0,0.00
2013-12-22,62,50,34,-100,-100,-100,0,0,100,0.00,40.00,0,-999,0,0.00
2013-12-23,58,48,36,-100,-100,-100,0,0,100,0.00,40.00,0,-999,0,0.00
2013-12-24,66,50,36,-100,-100,-100,0,0,100,0.00,40.00,0,-999,0,0.00
2013-12-25,62,48,38,-100,-100,-100,0,0,100,0.00,40.00,0,-999,0,0.00
2013-12-26,64,47,36,-100,-100,-100,0,0,100,0.00,40.00,0,-999,0,0.00
2013-12-27,55,43,36,-100,-100,-100,0,0,100,0.00,40.00,0,-999,0,0.00
2013-12-28,59,46,33,-100,-100,-100,0,0,100,0.00,40.00,0,-999,0,0.00
2013-12-29,63,55,46,-100,-100,-100,0,0,100,0.00,40.00,0,-999,0,0.00
2013-12-30,59,44,33,-100,-100,-100,0,0,100,0.00,40.00,0,-999,0,0.00
2013-12-31,54,44,36,-100,-100,-100,0,0,100,0.00,40.00,0,-999,0,0.00
2014-1-1,59,44,32,-100,-100,-100,0,0,100,0.00,40.00,0,-999,0,0.00
2014-1-2,60,52,36,-100,-100,-100,0,0,100,0.00,40.00,0,-999,0,0.00